,,PA_Meas_PMT16A,,PR_Meas_QMR101_102,,RH_Meas_QMH101,,SR_Meas_QMS101,,TA_Meas_QMH101,,GenWind,,GenWind,
time,status,PA,status,PR,status,RH,status,SR,status,TA,status,DirAvg,status,SpdAvg,
2011-03-25, 00:00:04,VALID,917.646,VALID,0,VALID,96.116,VALID,0,VALID,19.3713,VALID,22,VALID,1.05703,
2011-03-25, 00:01:04,VALID,917.641,VALID,0,VALID,96.1618,VALID,0,VALID,19.3713,VALID,37,VALID,1.31094,
2011-03-25, 00:02:04,VALID,917.62,VALID,0,VALID,96.1618,VALID,0,VALID,19.3713,VALID,20,VALID,1.7875,
2011-03-25, 00:03:04,VALID,917.634,VALID,0,VALID,96.1618,VALID,0,VALID,19.3923,VALID,12,VALID,1.0625,
2011-03-25, 00:04:04,VALID,917.633,VALID,0,VALID,96.1084,VALID,0,VALID,19.3518,VALID,3,VALID,1.16328,
2011-03-25, 00:05:04,VALID,917.631,VALID,0,VALID,96.1313,VALID,0,VALID,19.3518,VALID,29,VALID,1.77383,
2011-03-25, 00:06:04,VALID,917.642,VALID,0,VALID,96.1618,VALID,0,VALID,19.3923,VALID,31,VALID,0.885547,
2011-03-25, 00:07:04,VALID,917.593,VALID,0,VALID,96.177,VALID,0,VALID,19.3713,VALID,30,VALID,0.578906,
2011-03-25, 00:08:04,VALID,917.604,VALID,0,VALID,96.1465,VALID,0,VALID,19.3908,VALID,24,VALID,0.927344,
2011-03-25, 00:09:04,VALID,917.597,VALID,0,VALID,96.1084,VALID,0,VALID,19.3908,VALID,24,VALID,0.405469,
2011-03-25, 00:10:04,VALID,917.572,VALID,0,VALID,96.1236,VALID,0,VALID,19.3908,VALID,24,VALID,0.238672,
2011-03-25, 00:11:04,VALID,917.575,VALID,0,VALID,96.1008,VALID,0,VALID,19.4103,VALID,24,VALID,0.482422,
2011-03-25, 00:12:04,VALID,917.56,VALID,0,VALID,96.0474,VALID,0,VALID,19.4103,VALID,286,VALID,0.940234,
2011-03-25, 00:13:04,VALID,917.553,VALID,0,VALID,96.0017,VALID,0,VALID,19.4298,VALID,286,VALID,0.188672,
2011-03-25, 00:14:04,VALID,917.517,VALID,0,VALID,95.9712,VALID,0,VALID,19.4298,VALID,9,VALID,0.806641,
2011-03-25, 00:15:04,VALID,917.503,VALID,0,VALID,95.9178,VALID,0,VALID,19.4298,VALID,51,VALID,0.280859,
2011-03-25, 00:16:04,VALID,917.523,VALID,0,VALID,95.9331,VALID,0,VALID,19.4703,VALID,51,VALID,0.103125,
2011-03-25, 00:17:04,VALID,917.505,VALID,0,VALID,95.895,VALID,0,VALID,19.4493,VALID,51,VALID,0.294922,
2011-03-25, 00:18:04,VALID,917.518,VALID,0,VALID,95.9102,VALID,0,VALID,19.4898,VALID,50,VALID,0.0382813,
2011-03-25, 00:19:04,VALID,917.507,VALID,0,VALID,95.895,VALID,0,VALID,19.4493,VALID,50,VALID,0.128125,
2011-03-25, 00:20:04,VALID,917.492,VALID,0,VALID,95.8568,VALID,0,VALID,19.4703,VALID,50,VALID,0.841797,
2011-03-25, 00:21:04,VALID,917.512,VALID,0,VALID,95.8873,VALID,0,VALID,19.4493,VALID,51,VALID,0.775,
2011-03-25, 00:22:04,VALID,917.515,VALID,0,VALID,95.9254,VALID,0,VALID,19.4508,VALID,15,VALID,1.38047,
2011-03-25, 00:23:04,VALID,917.483,VALID,0,VALID,95.9407,VALID,0,VALID,19.4298,VALID,14,VALID,1.10977,
2011-03-25, 00:24:04,VALID,917.464,VALID,0,VALID,95.9331,VALID,0,VALID,19.4103,VALID,13,VALID,1.14102,
2011-03-25, 00:25:04,VALID,917.472,VALID,0,VALID,95.9407,VALID,0,VALID,19.4103,VALID,13,VALID,0.935547,
2011-03-25, 00:26:04,VALID,917.501,VALID,0,VALID,95.9712,VALID,0,VALID,19.4103,VALID,13,VALID,0.628906,
2011-03-25, 00:27:04,VALID,917.431,VALID,0,VALID,96.0245,VALID,0,VALID,19.4103,VALID,13,VALID,0.766797,
2011-03-25, 00:28:04,VALID,917.464,VALID,0,VALID,96.0017,VALID,0,VALID,19.4103,VALID,13,VALID,0.905078,
2011-03-25, 00:29:04,VALID,917.44,VALID,0,VALID,96.055,VALID,0,VALID,19.4298,VALID,13,VALID,1.21563,
2011-03-25, 00:30:04,VALID,917.377,VALID,0,VALID,96.0474,VALID,0,VALID,19.4298,VALID,13,VALID,0.875781,
2011-03-25, 00:31:04,VALID,917.39,VALID,0,VALID,96.0169,VALID,0,VALID,19.4298,VALID,13,VALID,0.782031,
2011-03-25, 00:32:04,VALID,917.376,VALID,0,VALID,95.9788,VALID,0,VALID,19.4298,VALID,356,VALID,0.986328,
2011-03-25, 00:33:04,VALID,917.367,VALID,0,VALID,95.9864,VALID,0,VALID,19.4298,VALID,6,VALID,0.699219,
2011-03-25, 00:34:04,VALID,917.392,VALID,0,VALID,95.9864,VALID,0,VALID,19.4703,VALID,6,VALID,0.00585938,
2011-03-25, 00:35:04,VALID,917.379,VALID,0,VALID,95.9788,VALID,0,VALID,19.4493,VALID,6,VALID,0.619922,
2011-03-25, 00:36:04,VALID,917.413,VALID,0,VALID,95.9102,VALID,0,VALID,19.4283,VALID,6,VALID,0.444922,
2011-03-25, 00:37:04,VALID,917.386,VALID,0,VALID,95.9331,VALID,0,VALID,19.4283,VALID,6,VALID,0.140625,
2011-03-25, 00:38:04,VALID,917.382,VALID,0,VALID,95.9712,VALID,0,VALID,19.4088,VALID,6,VALID,0.141016,
2011-03-25, 00:39:04,VALID,917.37,VALID,0,VALID,95.9788,VALID,0,VALID,19.4493,VALID,6,VALID,0.476172,
2011-03-25, 00:40:04,VALID,917.357,VALID,0,VALID,96.0398,VALID,0,VALID,19.4283,VALID,6,VALID,0.255078,
2011-03-25, 00:41:04,VALID,917.391,VALID,0,VALID,96.0169,VALID,0.107441,VALID,19.4283,VALID,6,VALID,0.216406,
2011-03-25, 00:42:04,VALID,917.382,VALID,0,VALID,96.0398,VALID,0,VALID,19.4493,VALID,6,VALID,0,
2011-03-25, 00:43:04,VALID,917.38,VALID,0,VALID,96.0703,VALID,0,VALID,19.4283,VALID,6,VALID,0,
2011-03-25, 00:44:04,VALID,917.422,VALID,0,VALID,96.0779,VALID,0,VALID,19.4478,VALID,6,VALID,0,
2011-03-25, 00:45:04,VALID,917.412,VALID,0,VALID,96.0627,VALID,0.107441,VALID,19.4283,VALID,6,VALID,0.768359,
2011-03-25, 00:46:04,VALID,917.409,VALID,0,VALID,96.0398,VALID,0.107441,VALID,19.4283,VALID,6,VALID,0.271875,
2011-03-25, 00:47:04,VALID,917.401,VALID,0,VALID,96.0779,VALID,0.107441,VALID,19.4283,VALID,6,VALID,0.205078,
2011-03-25, 00:48:04,VALID,917.361,VALID,0,VALID,96.0855,VALID,0,VALID,19.4088,VALID,6,VALID,0.303516,
2011-03-25, 00:49:04,VALID,917.373,VALID,0,VALID,96.1008,VALID,0,VALID,19.4283,VALID,6,VALID,0.314844,
2011-03-25, 00:50:04,VALID,917.325,VALID,0,VALID,96.1236,VALID,0.107441,VALID,19.4478,VALID,6,VALID,0.000390625,
2011-03-25, 00:51:04,VALID,917.384,VALID,0,VALID,96.1313,VALID,0,VALID,19.4283,VALID,6,VALID,0.647656,
2011-03-25, 00:52:04,VALID,917.361,VALID,0,VALID,96.1465,VALID,0,VALID,19.4478,VALID,276,VALID,0.641406,
2011-03-25, 00:53:04,VALID,917.365,VALID,0,VALID,96.1008,VALID,0,VALID,19.4478,VALID,249,VALID,0.554297,
2011-03-25, 00:54:04,VALID,917.347,VALID,0,VALID,96.1313,VALID,0.107441,VALID,19.4673,VALID,249,VALID,0.320313,
2011-03-25, 00:55:04,VALID,917.362,VALID,0,VALID,96.116,VALID,0,VALID,19.4673,VALID,249,VALID,0.224609,
2011-03-25, 00:56:04,VALID,917.374,VALID,0,VALID,96.116,VALID,0,VALID,19.4868,VALID,249,VALID,0.497266,
2011-03-25, 00:57:04,VALID,917.339,VALID,0,VALID,96.1084,VALID,0,VALID,19.4673,VALID,249,VALID,0.41875,
2011-03-25, 00:58:04,VALID,917.348,VALID,0,VALID,96.0627,VALID,0,VALID,19.4673,VALID,249,VALID,0.413672,
2011-03-25, 00:59:04,VALID,917.355,VALID,0,VALID,96.0855,VALID,0,VALID,19.4673,VALID,249,VALID,0.235938,
2011-03-25, 01:00:04,VALID,917.369,VALID,0,VALID,96.0779,VALID,0,VALID,19.4673,VALID,249,VALID,0.244531,
2011-03-25, 01:01:04,VALID,917.31,VALID,0,VALID,96.0932,VALID,0,VALID,19.5078,VALID,76,VALID,1.33672,
2011-03-25, 01:02:04,VALID,917.329,VALID,0,VALID,96.0093,VALID,0,VALID,19.4478,VALID,199,VALID,0.612891,
2011-03-25, 01:03:04,VALID,917.314,VALID,0,VALID,96.0398,VALID,0.107441,VALID,19.4868,VALID,199,VALID,0.276563,
2011-03-25, 01:04:04,VALID,917.337,VALID,0,VALID,96.0322,VALID,0,VALID,19.4868,VALID,199,VALID,0.507422,
2011-03-25, 01:05:04,VALID,917.323,VALID,0,VALID,96.0855,VALID,0.107441,VALID,19.4868,VALID,199,VALID,0.500781,
2011-03-25, 01:06:04,VALID,917.331,VALID,0,VALID,96.0398,VALID,0,VALID,19.4883,VALID,199,VALID,0,
2011-03-25, 01:07:04,VALID,917.329,VALID,0,VALID,95.9941,VALID,0,VALID,19.4688,VALID,199,VALID,1.18516,
2011-03-25, 01:08:04,VALID,917.336,VALID,0,VALID,96.0093,VALID,0,VALID,19.4688,VALID,199,VALID,0.916406,
2011-03-25, 01:09:04,VALID,917.274,VALID,0,VALID,96.0703,VALID,0,VALID,19.4688,VALID,199,VALID,0.510938,
2011-03-25, 01:10:04,VALID,917.283,VALID,0,VALID,96.116,VALID,0,VALID,19.4688,VALID,199,VALID,0.316016,
2011-03-25, 01:11:04,VALID,917.258,VALID,0,VALID,96.055,VALID,0,VALID,19.4703,VALID,199,VALID,0.714453,
2011-03-25, 01:12:04,VALID,917.24,VALID,0,VALID,96.1694,VALID,0,VALID,19.4493,VALID,199,VALID,0.980078,
2011-03-25, 01:13:04,VALID,917.257,VALID,0,VALID,96.2075,VALID,0,VALID,19.4688,VALID,199,VALID,0.529688,
2011-03-25, 01:14:04,VALID,917.228,VALID,0,VALID,96.2228,VALID,0,VALID,19.4883,VALID,171,VALID,0.583203,
2011-03-25, 01:15:04,VALID,917.194,VALID,0,VALID,96.2533,VALID,0,VALID,19.4688,VALID,43,VALID,0.771875,
2011-03-25, 01:16:04,VALID,917.168,VALID,0,VALID,96.2456,VALID,0,VALID,19.4883,VALID,43,VALID,0.871484,
2011-03-25, 01:17:04,VALID,917.178,VALID,0,VALID,96.2456,VALID,0,VALID,19.4898,VALID,43,VALID,1.09297,
2011-03-25, 01:18:04,VALID,917.18,VALID,0,VALID,96.2685,VALID,0,VALID,19.4703,VALID,43,VALID,1.24141,
2011-03-25, 01:19:04,VALID,917.152,VALID,0,VALID,96.3447,VALID,0,VALID,19.4688,VALID,43,VALID,0.595312,
2011-03-25, 01:20:04,VALID,917.157,VALID,0,VALID,96.3905,VALID,0,VALID,19.4898,VALID,43,VALID,0.678125,
2011-03-25, 01:21:04,VALID,917.154,VALID,0,VALID,96.3905,VALID,0,VALID,19.4898,VALID,43,VALID,0.778906,
2011-03-25, 01:22:04,VALID,917.146,VALID,0,VALID,96.4133,VALID,0,VALID,19.4493,VALID,43,VALID,0.59375,
2011-03-25, 01:23:04,VALID,917.102,VALID,0,VALID,96.3981,VALID,0,VALID,19.4493,VALID,43,VALID,1.06797,
2011-03-25, 01:24:04,VALID,917.136,VALID,0,VALID,96.4286,VALID,0,VALID,19.4688,VALID,43,VALID,1.17969,
2011-03-25, 01:25:04,VALID,917.129,VALID,0.2,VALID,96.4286,VALID,0,VALID,19.4703,VALID,43,VALID,1.07539,
2011-03-25, 01:26:04,VALID,917.104,VALID,0,VALID,96.4591,VALID,0,VALID,19.4493,VALID,37,VALID,1.13711,
2011-03-25, 01:27:04,VALID,917.14,VALID,0,VALID,96.4896,VALID,0,VALID,19.4493,VALID,12,VALID,0.844141,
2011-03-25, 01:28:04,VALID,917.096,VALID,0,VALID,96.4819,VALID,0,VALID,19.4493,VALID,87,VALID,1.26094,
2011-03-25, 01:29:04,VALID,917.106,VALID,0,VALID,96.5124,VALID,0,VALID,19.4298,VALID,46,VALID,1.31445,
2011-03-25, 01:30:04,VALID,917.104,VALID,0,VALID,96.5353,VALID,0,VALID,19.4493,VALID,46,VALID,0.967188,
2011-03-25, 01:31:04,VALID,917.116,VALID,0.2,VALID,96.5048,VALID,0,VALID,19.4298,VALID,46,VALID,0.336719,
2011-03-25, 01:32:04,VALID,917.068,VALID,0,VALID,96.5124,VALID,0,VALID,19.4298,VALID,30,VALID,0.862109,
2011-03-25, 01:33:04,VALID,917.068,VALID,0,VALID,96.5124,VALID,0,VALID,19.4313,VALID,36,VALID,1.78906,
2011-03-25, 01:34:04,VALID,917.069,VALID,0,VALID,96.5201,VALID,0,VALID,19.4508,VALID,26,VALID,0.930078,
2011-03-25, 01:35:04,VALID,917.119,VALID,0,VALID,96.5658,VALID,0,VALID,19.4508,VALID,26,VALID,0.641016,
2011-03-25, 01:36:04,VALID,917.091,VALID,0,VALID,96.5582,VALID,0,VALID,19.4298,VALID,18,VALID,1.12461,
2011-03-25, 01:37:04,VALID,917.108,VALID,0.2,VALID,96.5734,VALID,0,VALID,19.4703,VALID,18,VALID,0.0597656,
2011-03-25, 01:38:04,VALID,917.072,VALID,0,VALID,96.5963,VALID,0,VALID,19.4298,VALID,18,VALID,0.780469,
2011-03-25, 01:39:04,VALID,917.061,VALID,0,VALID,96.5811,VALID,0,VALID,19.4493,VALID,18,VALID,0.630469,
2011-03-25, 01:40:04,VALID,917.049,VALID,0,VALID,96.5811,VALID,0,VALID,19.4493,VALID,18,VALID,0.880078,
2011-03-25, 01:41:04,VALID,917.005,VALID,0,VALID,96.5963,VALID,0,VALID,19.4688,VALID,18,VALID,0.241406,
2011-03-25, 01:42:04,VALID,917.05,VALID,0,VALID,96.5811,VALID,0,VALID,19.4493,VALID,18,VALID,0.489844,
2011-03-25, 01:43:04,VALID,917.02,VALID,0.2,VALID,96.5582,VALID,0,VALID,19.4088,VALID,34,VALID,0.553906,
2011-03-25, 01:44:04,VALID,917.03,VALID,0,VALID,96.5429,VALID,0,VALID,19.4103,VALID,19,VALID,0.995703,
2011-03-25, 01:45:04,VALID,917.012,VALID,0,VALID,96.5429,VALID,0,VALID,19.3908,VALID,17,VALID,1.77031,
2011-03-25, 01:46:04,VALID,916.994,VALID,0,VALID,96.5429,VALID,0,VALID,19.4103,VALID,19,VALID,0.117578,
2011-03-25, 01:47:04,VALID,916.975,VALID,0,VALID,96.5811,VALID,0,VALID,19.4103,VALID,19,VALID,0.686328,
2011-03-25, 01:48:04,VALID,916.983,VALID,0,VALID,96.5658,VALID,0,VALID,19.4298,VALID,19,VALID,0.433984,
2011-03-25, 01:49:04,VALID,916.949,VALID,0,VALID,96.5887,VALID,0,VALID,19.4298,VALID,19,VALID,0.0179687,
2011-03-25, 01:50:04,VALID,916.981,VALID,0,VALID,96.5658,VALID,0,VALID,19.4103,VALID,19,VALID,0.376563,
2011-03-25, 01:51:04,VALID,916.962,VALID,0,VALID,96.4972,VALID,0,VALID,19.4103,VALID,19,VALID,0.249219,
2011-03-25, 01:52:04,VALID,916.937,VALID,0,VALID,96.5582,VALID,0,VALID,19.4118,VALID,19,VALID,0.0402344,
2011-03-25, 01:53:04,VALID,916.892,VALID,0,VALID,96.5658,VALID,0,VALID,19.4103,VALID,19,VALID,0.451953,
2011-03-25, 01:54:04,VALID,916.853,VALID,0,VALID,96.5506,VALID,0,VALID,19.3908,VALID,19,VALID,0.250781,
2011-03-25, 01:55:04,VALID,916.858,VALID,0,VALID,96.5201,VALID,0,VALID,19.3923,VALID,19,VALID,0.653125,
2011-03-25, 01:56:04,VALID,916.816,VALID,0,VALID,96.5201,VALID,0,VALID,19.3518,VALID,19,VALID,0.708984,
2011-03-25, 01:57:04,VALID,916.805,VALID,0,VALID,96.5506,VALID,0,VALID,19.3518,VALID,19,VALID,0.960156,
2011-03-25, 01:58:04,VALID,916.768,VALID,0,VALID,96.5353,VALID,0,VALID,19.3713,VALID,19,VALID,0.351563,
2011-03-25, 01:59:04,VALID,916.803,VALID,0,VALID,96.5506,VALID,0,VALID,19.3518,VALID,19,VALID,0.475781,
2011-03-25, 02:00:04,VALID,916.754,VALID,0,VALID,96.5277,VALID,0,VALID,19.3323,VALID,19,VALID,0.689453,
2011-03-25, 02:01:04,VALID,916.748,VALID,0.2,VALID,96.5353,VALID,0,VALID,19.3323,VALID,19,VALID,1.06172,
2011-03-25, 02:02:04,VALID,916.745,VALID,0,VALID,96.5582,VALID,0,VALID,19.3518,VALID,19,VALID,0.522266,
2011-03-25, 02:03:04,VALID,916.739,VALID,0,VALID,96.5277,VALID,0,VALID,19.3713,VALID,19,VALID,0.474219,
2011-03-25, 02:04:04,VALID,916.74,VALID,0,VALID,96.4896,VALID,0,VALID,19.3113,VALID,329,VALID,1.5,
2011-03-25, 02:05:04,VALID,916.733,VALID,0,VALID,96.4972,VALID,0,VALID,19.3323,VALID,17,VALID,1.07383,
2011-03-25, 02:06:04,VALID,916.747,VALID,0,VALID,96.5048,VALID,0,VALID,19.3713,VALID,17,VALID,0.588672,
2011-03-25, 02:07:04,VALID,916.745,VALID,0,VALID,96.4667,VALID,0,VALID,19.3518,VALID,17,VALID,0.01875,
2011-03-25, 02:08:04,VALID,916.75,VALID,0,VALID,96.4743,VALID,0,VALID,19.3923,VALID,17,VALID,0.473828,
2011-03-25, 02:09:04,VALID,916.696,VALID,0,VALID,96.4972,VALID,0,VALID,19.3923,VALID,17,VALID,0.717578,
2011-03-25, 02:10:04,VALID,916.706,VALID,0,VALID,96.4438,VALID,0,VALID,19.3713,VALID,17,VALID,0.266797,
2011-03-25, 02:11:04,VALID,916.705,VALID,0,VALID,96.4362,VALID,0,VALID,19.3728,VALID,17,VALID,0.531641,
2011-03-25, 02:12:04,VALID,916.686,VALID,0,VALID,96.4438,VALID,0,VALID,19.3713,VALID,17,VALID,0.0378906,
2011-03-25, 02:13:04,VALID,916.649,VALID,0,VALID,96.4286,VALID,0,VALID,19.3713,VALID,17,VALID,0,
2011-03-25, 02:14:04,VALID,916.642,VALID,0,VALID,96.4133,VALID,0,VALID,19.3713,VALID,17,VALID,0.129297,
2011-03-25, 02:15:04,VALID,916.602,VALID,0,VALID,96.3981,VALID,0,VALID,19.3323,VALID,17,VALID,0.490234,
2011-03-25, 02:16:04,VALID,916.592,VALID,0,VALID,96.3905,VALID,0,VALID,19.3323,VALID,17,VALID,0.633984,
2011-03-25, 02:17:04,VALID,916.554,VALID,0,VALID,96.3676,VALID,0,VALID,19.3128,VALID,17,VALID,0.657422,
2011-03-25, 02:18:04,VALID,916.536,VALID,0,VALID,96.4438,VALID,0,VALID,19.3128,VALID,17,VALID,0.675,
2011-03-25, 02:19:04,VALID,916.525,VALID,0,VALID,96.4133,VALID,0,VALID,19.2933,VALID,17,VALID,0.505469,
2011-03-25, 02:20:04,VALID,916.545,VALID,0,VALID,96.4057,VALID,0,VALID,19.2933,VALID,17,VALID,0.0234375,
2011-03-25, 02:21:04,VALID,916.549,VALID,0,VALID,96.421,VALID,0,VALID,19.2933,VALID,17,VALID,0.106641,
2011-03-25, 02:22:04,VALID,916.545,VALID,0,VALID,96.4286,VALID,0,VALID,19.2933,VALID,17,VALID,0,
2011-03-25, 02:23:04,VALID,916.604,VALID,0,VALID,96.4438,VALID,0,VALID,19.3128,VALID,17,VALID,0.0179687,
2011-03-25, 02:24:04,VALID,916.602,VALID,0,VALID,96.4286,VALID,0,VALID,19.2933,VALID,17,VALID,0.418359,
2011-03-25, 02:25:04,VALID,916.56,VALID,0,VALID,96.4286,VALID,0,VALID,19.3143,VALID,17,VALID,0.282422,
2011-03-25, 02:26:04,VALID,916.548,VALID,0,VALID,96.4133,VALID,0,VALID,19.2933,VALID,17,VALID,0.345703,
2011-03-25, 02:27:04,VALID,916.516,VALID,0,VALID,96.421,VALID,0,VALID,19.3128,VALID,17,VALID,0.133203,
2011-03-25, 02:28:04,VALID,916.52,VALID,0,VALID,96.3676,VALID,0,VALID,19.2933,VALID,17,VALID,0.506641,
2011-03-25, 02:29:04,VALID,916.537,VALID,0,VALID,96.3371,VALID,0,VALID,19.2348,VALID,17,VALID,0.889844,
2011-03-25, 02:30:04,VALID,916.53,VALID,0,VALID,96.3219,VALID,0,VALID,19.2348,VALID,17,VALID,0.703516,
2011-03-25, 02:31:04,VALID,916.521,VALID,0,VALID,96.3447,VALID,0,VALID,19.2348,VALID,17,VALID,0.451172,
2011-03-25, 02:32:04,VALID,916.515,VALID,0,VALID,96.3752,VALID,0,VALID,19.2153,VALID,17,VALID,0.435156,
2011-03-25, 02:33:04,VALID,916.486,VALID,0,VALID,96.421,VALID,0,VALID,19.2153,VALID,17,VALID,0.311328,
2011-03-25, 02:34:04,VALID,916.509,VALID,0,VALID,96.4896,VALID,0,VALID,19.2139,VALID,17,VALID,0,
2011-03-25, 02:35:04,VALID,916.486,VALID,0,VALID,96.4743,VALID,0,VALID,19.2543,VALID,17,VALID,0.200391,
2011-03-25, 02:36:04,VALID,916.474,VALID,0,VALID,96.4972,VALID,0,VALID,19.2348,VALID,17,VALID,0,
2011-03-25, 02:37:04,VALID,916.405,VALID,0,VALID,96.4743,VALID,0,VALID,19.2348,VALID,17,VALID,0.497656,
2011-03-25, 02:38:04,VALID,916.37,VALID,0,VALID,96.5429,VALID,0,VALID,19.2348,VALID,17,VALID,0.507813,
2011-03-25, 02:39:04,VALID,916.349,VALID,0,VALID,96.5658,VALID,0,VALID,19.2543,VALID,17,VALID,0.0222656,
2011-03-25, 02:40:04,VALID,916.344,VALID,0,VALID,96.5277,VALID,0,VALID,19.2558,VALID,17,VALID,0.740625,
2011-03-25, 02:41:04,VALID,916.282,VALID,0,VALID,96.4972,VALID,0,VALID,19.2168,VALID,17,VALID,0.955859,
2011-03-25, 02:42:04,VALID,916.254,VALID,0,VALID,96.5429,VALID,0,VALID,19.2153,VALID,17,VALID,0.915625,
2011-03-25, 02:43:04,VALID,916.232,VALID,0,VALID,96.6039,VALID,0,VALID,19.2153,VALID,17,VALID,0.598437,
2011-03-25, 02:44:04,VALID,916.19,VALID,0,VALID,96.6115,VALID,0,VALID,19.2348,VALID,17,VALID,0.392578,
2011-03-25, 02:45:04,VALID,916.104,VALID,0,VALID,96.6039,VALID,0,VALID,19.2363,VALID,17,VALID,0.388281,
2011-03-25, 02:46:04,VALID,916.122,VALID,0,VALID,96.5963,VALID,0,VALID,19.2168,VALID,17,VALID,0.979297,
2011-03-25, 02:47:04,VALID,916.1,VALID,0,VALID,96.642,VALID,0,VALID,19.2153,VALID,17,VALID,0.667969,
2011-03-25, 02:48:04,VALID,916.098,VALID,0,VALID,96.6115,VALID,0,VALID,19.2153,VALID,17,VALID,0.283594,
2011-03-25, 02:49:04,VALID,916.09,VALID,0,VALID,96.5811,VALID,0,VALID,19.1763,VALID,17,VALID,0.614453,
2011-03-25, 02:50:04,VALID,916.045,VALID,0,VALID,96.6344,VALID,0,VALID,19.1973,VALID,17,VALID,0.533984,
2011-03-25, 02:51:04,VALID,916.011,VALID,0,VALID,96.6649,VALID,0,VALID,19.1958,VALID,17,VALID,0.737109,
2011-03-25, 02:52:04,VALID,915.989,VALID,0,VALID,96.642,VALID,0,VALID,19.1958,VALID,17,VALID,0.865234,
2011-03-25, 02:53:04,VALID,915.973,VALID,0,VALID,96.6725,VALID,0,VALID,19.1958,VALID,17,VALID,1.22305,
2011-03-25, 02:54:04,VALID,915.927,VALID,0,VALID,96.6573,VALID,0,VALID,19.1763,VALID,19,VALID,1.24063,
2011-03-25, 02:55:04,VALID,915.882,VALID,0,VALID,96.6725,VALID,0,VALID,19.1778,VALID,29,VALID,1.00391,
2011-03-25, 02:56:04,VALID,915.909,VALID,0,VALID,96.6954,VALID,0,VALID,19.1763,VALID,29,VALID,1.42305,
2011-03-25, 02:57:04,VALID,915.847,VALID,0,VALID,96.7259,VALID,0,VALID,19.1973,VALID,29,VALID,1.11055,
2011-03-25, 02:58:04,VALID,915.817,VALID,0,VALID,96.7335,VALID,0,VALID,19.1958,VALID,36,VALID,1.06719,
2011-03-25, 02:59:04,VALID,915.797,VALID,0,VALID,96.7564,VALID,0,VALID,19.1958,VALID,35,VALID,1.02813,
2011-03-25, 03:00:04,VALID,915.782,VALID,0,VALID,96.7411,VALID,0,VALID,19.1763,VALID,35,VALID,0.853516,
2011-03-25, 03:01:04,VALID,915.795,VALID,0,VALID,96.7564,VALID,0,VALID,19.1973,VALID,35,VALID,0.990234,
2011-03-25, 03:02:04,VALID,915.762,VALID,0,VALID,96.7488,VALID,0,VALID,19.1763,VALID,35,VALID,0.664063,
2011-03-25, 03:03:04,VALID,915.73,VALID,0,VALID,96.7716,VALID,0,VALID,19.1973,VALID,35,VALID,0.724219,
2011-03-25, 03:04:04,VALID,915.74,VALID,0,VALID,96.7945,VALID,0,VALID,19.1763,VALID,32,VALID,1.12109,
2011-03-25, 03:05:04,VALID,915.742,VALID,0,VALID,96.7945,VALID,0,VALID,19.1763,VALID,27,VALID,0.878516,
2011-03-25, 03:06:04,VALID,915.763,VALID,0,VALID,96.7869,VALID,0.107441,VALID,19.1554,VALID,27,VALID,0.862109,
2011-03-25, 03:07:04,VALID,915.802,VALID,0,VALID,96.8021,VALID,0,VALID,19.1763,VALID,27,VALID,0.770703,
2011-03-25, 03:08:04,VALID,915.796,VALID,0,VALID,96.7945,VALID,0,VALID,19.1359,VALID,7,VALID,1.05195,
2011-03-25, 03:09:04,VALID,915.773,VALID,0,VALID,96.7945,VALID,0,VALID,19.1568,VALID,6,VALID,1.03516,
2011-03-25, 03:10:04,VALID,915.762,VALID,0,VALID,96.8174,VALID,0,VALID,19.1359,VALID,6,VALID,0.548828,
2011-03-25, 03:11:04,VALID,915.744,VALID,0,VALID,96.8403,VALID,0.107441,VALID,19.1568,VALID,6,VALID,0.754687,
2011-03-25, 03:12:04,VALID,915.793,VALID,0,VALID,96.8631,VALID,0,VALID,19.1164,VALID,347,VALID,0.857422,
2011-03-25, 03:13:04,VALID,915.777,VALID,0,VALID,96.8631,VALID,0,VALID,19.1359,VALID,347,VALID,0.134375,
2011-03-25, 03:14:04,VALID,915.767,VALID,0,VALID,96.8707,VALID,0,VALID,19.1568,VALID,347,VALID,0.272656,
2011-03-25, 03:15:04,VALID,915.732,VALID,0,VALID,96.8479,VALID,0.107441,VALID,19.1568,VALID,347,VALID,0.300391,
2011-03-25, 03:16:04,VALID,915.728,VALID,0,VALID,96.8707,VALID,0,VALID,19.1359,VALID,347,VALID,0.567969,
2011-03-25, 03:17:04,VALID,915.659,VALID,0,VALID,96.9089,VALID,0,VALID,19.1554,VALID,305,VALID,0.807422,
2011-03-25, 03:18:04,VALID,915.643,VALID,0,VALID,96.886,VALID,0.107441,VALID,19.1749,VALID,282,VALID,0.746094,
2011-03-25, 03:19:04,VALID,915.666,VALID,0,VALID,96.8707,VALID,0,VALID,19.1763,VALID,282,VALID,0.596094,
2011-03-25, 03:20:04,VALID,915.644,VALID,0,VALID,96.8631,VALID,0,VALID,19.1749,VALID,282,VALID,0.354297,
2011-03-25, 03:21:04,VALID,915.604,VALID,0,VALID,96.8707,VALID,0,VALID,19.1749,VALID,282,VALID,0.110937,
2011-03-25, 03:22:04,VALID,915.543,VALID,0,VALID,96.8555,VALID,0,VALID,19.1958,VALID,282,VALID,0.854297,
2011-03-25, 03:23:04,VALID,915.53,VALID,0,VALID,96.7716,VALID,0,VALID,19.1568,VALID,282,VALID,1.06289,
2011-03-25, 03:24:04,VALID,915.499,VALID,0,VALID,96.8021,VALID,0.107441,VALID,19.1359,VALID,19,VALID,1.38125,
2011-03-25, 03:25:04,VALID,915.515,VALID,0,VALID,96.8555,VALID,0,VALID,19.1568,VALID,19,VALID,1.43711,
2011-03-25, 03:26:04,VALID,915.487,VALID,0,VALID,96.8479,VALID,0,VALID,19.1359,VALID,19,VALID,0.572656,
2011-03-25, 03:27:04,VALID,915.472,VALID,0,VALID,96.8631,VALID,0,VALID,19.1164,VALID,19,VALID,0.870313,
2011-03-25, 03:28:04,VALID,915.472,VALID,0,VALID,96.8707,VALID,0,VALID,19.1164,VALID,19,VALID,0.519531,
2011-03-25, 03:29:04,VALID,915.474,VALID,0,VALID,96.886,VALID,0,VALID,19.1164,VALID,19,VALID,0.786328,
2011-03-25, 03:30:04,VALID,915.397,VALID,0,VALID,96.9089,VALID,0.107441,VALID,19.1359,VALID,23,VALID,1.56523,
2011-03-25, 03:31:04,VALID,915.417,VALID,0,VALID,96.9546,VALID,0,VALID,19.1554,VALID,29,VALID,2.29297,
2011-03-25, 03:32:04,VALID,915.466,VALID,0,VALID,96.9622,VALID,0,VALID,19.2139,VALID,111,VALID,0.576953,
2011-03-25, 03:33:04,VALID,915.47,VALID,0,VALID,96.8936,VALID,0,VALID,19.2348,VALID,54,VALID,0.763672,
2011-03-25, 03:34:04,VALID,915.462,VALID,0,VALID,96.9089,VALID,0.107441,VALID,19.2543,VALID,54,VALID,0.597656,
2011-03-25, 03:35:04,VALID,915.489,VALID,0,VALID,96.8631,VALID,0,VALID,19.2334,VALID,54,VALID,0.471875,
2011-03-25, 03:36:04,VALID,915.492,VALID,0,VALID,96.7945,VALID,0,VALID,19.2348,VALID,54,VALID,0.521484,
2011-03-25, 03:37:04,VALID,915.428,VALID,0,VALID,96.8174,VALID,0,VALID,19.2348,VALID,54,VALID,0.627734,
2011-03-25, 03:38:04,VALID,915.419,VALID,0,VALID,96.825,VALID,0.107441,VALID,19.2334,VALID,54,VALID,0.751562,
2011-03-25, 03:39:04,VALID,915.441,VALID,0,VALID,96.8174,VALID,0,VALID,19.2738,VALID,54,VALID,0.296094,
2011-03-25, 03:40:04,VALID,915.465,VALID,0,VALID,96.7869,VALID,0,VALID,19.2543,VALID,54,VALID,0.441016,
2011-03-25, 03:41:04,VALID,915.441,VALID,0,VALID,96.7335,VALID,0,VALID,19.2348,VALID,33,VALID,1.21133,
2011-03-25, 03:42:04,VALID,915.402,VALID,0,VALID,96.7793,VALID,0,VALID,19.2139,VALID,29,VALID,1.32813,
2011-03-25, 03:43:04,VALID,915.439,VALID,0,VALID,96.7716,VALID,0,VALID,19.2348,VALID,29,VALID,1.11328,
2011-03-25, 03:44:04,VALID,915.449,VALID,0,VALID,96.7869,VALID,0,VALID,19.2153,VALID,29,VALID,0.848828,
2011-03-25, 03:45:04,VALID,915.464,VALID,0,VALID,96.7716,VALID,0.107441,VALID,19.2139,VALID,29,VALID,1.30117,